IW8PDD-3 Weather Reports


time (UTC)temp
F
wind
direction
speed
knots
gust
knots
rain 1hr
in
rain 24hr
in
rain mn
in
humidity
%
barometer
mb
20260507102630 80 0.0 0.0 0.00 0.00 0.00 43 1010.8
20260507100626 80 0.0 0.0 0.00 0.00 0.00 44 1010.8
20260507094622 80 0.0 0.0 0.00 0.00 0.00 46 1010.8
20260507092618 78 0.0 0.0 0.00 0.00 0.00 50 1011.1
20260507090614 72 0.0 0.0 0.00 0.00 0.00 57 1011.3
20260507084610 70 0.0 0.0 0.00 0.00 0.00 58 1011.7
20260507082606 70 0.0 0.0 0.00 0.00 0.00 59 1012.0
20260507080602 69 0.0 0.0 0.00 0.00 0.00 60 1012.5
20260507072554 68 0.0 0.0 0.00 0.00 0.00 63 1013.2
20260507070550 68 0.0 0.0 0.00 0.00 0.00 64 1013.2
20260507064546 68 0.0 0.0 0.00 0.00 0.00 65 1013.8
20260507062542 68 0.0 0.0 0.00 0.00 0.00 66 1014.0
20260507060538 67 0.0 0.0 0.00 0.00 0.00 67 1014.1
20260507054534 66 0.0 0.0 0.00 0.00 0.00 68 1013.8
20260507052530 65 0.0 0.0 0.00 0.00 0.00 68 1014.0
20260507050526 64 0.0 0.0 0.00 0.00 0.00 69 1013.9
20260507044522 65 0.0 0.0 0.00 0.00 0.00 69 1014.3
20260507040514 64 0.0 0.0 0.00 0.00 0.00 68 1014.3
20260507034510 64 0.0 0.0 0.00 0.00 0.00 68 1014.3
20260507032506 64 0.0 0.0 0.00 0.00 0.00 68 1014.1
20260507024459 65 0.0 0.0 0.00 0.00 0.00 68 1013.9
20260507022455 64 0.0 0.0 0.00 0.00 0.00 69 1014.2
20260507020451 64 0.0 0.0 0.00 0.00 0.00 67 1014.1
20260507014447 65 0.0 0.0 0.00 0.00 0.00 66 1014.1
20260507012443 65 0.0 0.0 0.00 0.00 0.00 67 1014.4
20260507010439 65 0.0 0.0 0.00 0.00 0.00 67 1014.5
20260507004435 65 0.0 0.0 0.00 0.00 0.00 65 1014.4
20260507000427 66 0.0 0.0 0.00 0.00 0.00 62 1014.4
20260506234423 66 0.0 0.0 0.00 0.00 0.00 63 1014.5
20260506232419 66 0.0 0.0 0.00 0.00 0.00 64 1014.4
20260506230415 66 0.0 0.0 0.00 0.00 0.00 65 1014.3
20260506224411 65 0.0 0.0 0.00 0.00 0.00 66 1014.1
20260506222407 65 0.0 0.0 0.00 0.00 0.00 67 1014.1
20260506220404 65 0.0 0.0 0.00 0.00 0.00 67 1014.2
20260506214400 66 0.0 0.0 0.00 0.00 0.00 66 1014.4
20260506212357 65 0.0 0.0 0.00 0.00 0.00 65 1013.7
20260506210353 65 0.0 0.0 0.00 0.00 0.00 65 1013.8
20260506204350 65 0.0 0.0 0.00 0.00 0.00 65 1014.1
20260506202346 65 0.0 0.0 0.00 0.00 0.00 66 1014.8
20260506200343 65 0.0 0.0 0.00 0.00 0.00 66 1015.4
20260506194340 65 0.0 0.0 0.00 0.00 0.00 66 1015.3
20260506192336 66 0.0 0.0 0.00 0.00 0.00 66 1015.2
20260506190332 66 0.0 0.0 0.00 0.00 0.00 66 1015.4
20260506184328 66 0.0 0.0 0.00 0.00 0.00 66 1015.2
20260506182324 66 0.0 0.0 0.00 0.00 0.00 66 1015.2
20260506180320 66 0.0 0.0 0.00 0.00 0.00 65 1014.9
20260506174316 67 0.0 0.0 0.00 0.00 0.00 65 1014.5
20260506172312 67 0.0 0.0 0.00 0.00 0.00 65 1014.6
20260506170308 67 0.0 0.0 0.00 0.00 0.00 64 1014.7
20260506164304 67 0.0 0.0 0.00 0.00 0.00 64 1014.9
20260506162300 69 0.0 0.0 0.00 0.00 0.00 62 1015.0
20260506160256 69 0.0 0.0 0.00 0.00 0.00 63 1015.1
20260506154252 69 0.0 0.0 0.00 0.00 0.00 62 1015.3
20260506152248 70 0.0 0.0 0.00 0.00 0.00 61 1015.3
20260506150245 71 0.0 0.0 0.00 0.00 0.00 61 1015.3
20260506142237 74 0.0 0.0 0.00 0.00 0.00 57 1014.7
20260506140233 78 0.0 0.0 0.00 0.00 0.00 55 1014.9
20260506130221 75 0.0 0.0 0.00 0.00 0.00 57 1015.2
20260506122214 75 0.0 0.0 0.00 0.00 0.00 54 1015.2
20260506120211 74 0.0 0.0 0.00 0.00 0.00 53 1015.2
20260506114207 76 0.0 0.0 0.00 0.00 0.00 52 1015.4
20260506112204 76 0.0 0.0 0.00 0.00 0.00 52 1015.4
20260506110159 73 0.0 0.0 0.00 0.00 0.00 53 1015.7
20260506104155 72 0.0 0.0 0.00 0.00 0.00 54 1015.8